Stations météo

réclame
Mon MeteoGroup
Chillingham Barns, Grande-Bretagne (99196): Température de l'air & dewpoint: 10.12.2017 01:00:00 - 16.12.2017 01:00:00 (GMT)Chillingham Barns, Grande-Bretagne (99196): Quantités de précipitations: 10.12.2017 01:00:00 - 16.12.2017 01:00:00 (GMT)
Date & Time tt [°C] td [°C] rr [mm]
16.12.2017 01:00:00 1,2 -1,9 0,0
16.12.2017 00:00:00 1,3 -1,6 0,0
15.12.2017 23:00:00 1,3 -1,2 0,0
15.12.2017 22:00:00 2,1 -0,9 0,0
15.12.2017 21:00:00 2,8 -1,1 0,0
15.12.2017 20:00:00 3,1 -1,3 0,0
15.12.2017 19:00:00 3,0 -0,9 0,0
15.12.2017 18:00:00 - - 0,0
15.12.2017 17:00:00 3,0 0,2 0,0
15.12.2017 16:00:00 3,0 0,3 0,0
15.12.2017 15:00:00 4,1 0,9 0,0
15.12.2017 14:00:00 4,5 1,7 0,0
15.12.2017 13:00:00 4,5 2,8 0,0
15.12.2017 12:00:00 4,4 3,1 0,4
15.12.2017 11:00:00 4,8 2,8 0,6
15.12.2017 10:00:00 4,6 3,5 0,0
15.12.2017 09:00:00 4,8 3,2 1,0
15.12.2017 08:00:00 2,8 2,2 0,0
15.12.2017 07:00:00 2,8 1,4 0,0
15.12.2017 06:00:00 2,2 1,0 0,0
15.12.2017 05:00:00 2,2 0,5 0,0
15.12.2017 04:00:00 1,8 0,3 0,0
15.12.2017 03:00:00 2,0 1,3 0,0
15.12.2017 02:00:00 1,3 0,2 0,0
15.12.2017 01:00:00 1,1 0,1 0,0
15.12.2017 00:00:00 0,5 -0,6 0,0
14.12.2017 23:00:00 0,2 -1,2 0,0
14.12.2017 22:00:00 0,7 -0,9 0,0
14.12.2017 21:00:00 1,0 -1,0 0,0
14.12.2017 20:00:00 2,3 -0,2 0,0
14.12.2017 19:00:00 2,0 0,0 0,0
14.12.2017 18:00:00 2,1 0,9 0,0
14.12.2017 17:00:00 2,2 1,2 0,0
14.12.2017 16:00:00 3,1 1,2 0,2
14.12.2017 15:00:00 3,6 1,3 0,0
14.12.2017 14:00:00 3,3 1,6 0,0
14.12.2017 13:00:00 4,2 1,5 0,0
14.12.2017 12:00:00 4,0 1,4 0,0
14.12.2017 11:00:00 4,1 0,8 0,0
14.12.2017 10:00:00 3,7 0,3 0,0
14.12.2017 09:00:00 3,2 0,4 0,0
14.12.2017 08:00:00 3,7 0,2 0,0
14.12.2017 07:00:00 2,7 -0,6 0,0
14.12.2017 06:00:00 2,4 -1,1 0,0
14.12.2017 05:00:00 1,4 -1,3 0,0
14.12.2017 04:00:00 2,2 -1,2 0,0
14.12.2017 03:00:00 1,2 -1,5 0,0
14.12.2017 02:00:00 1,3 -1,7 0,0
14.12.2017 01:00:00 1,4 -1,6 0,0
14.12.2017 00:00:00 1,9 -1,1 0,0
13.12.2017 23:00:00 2,0 -0,8 0,0
13.12.2017 22:00:00 1,7 -0,9 0,0
13.12.2017 21:00:00 1,4 -1,0 0,0
13.12.2017 20:00:00 2,2 -1,0 0,0
13.12.2017 19:00:00 1,7 -1,2 0,0
13.12.2017 18:00:00 2,5 -0,8 0,0
13.12.2017 17:00:00 2,4 -0,6 0,0
13.12.2017 16:00:00 2,8 -0,3 0,0
13.12.2017 15:00:00 3,4 0,5 0,0
13.12.2017 14:00:00 4,6 1,6 0,0
13.12.2017 13:00:00 4,5 1,9 0,2
13.12.2017 12:00:00 4,8 2,4 0,0
13.12.2017 11:00:00 6,1 3,9 0,0
13.12.2017 10:00:00 4,9 3,8 0,0
13.12.2017 09:00:00 5,2 3,5 0,0
13.12.2017 08:00:00 4,7 3,2 0,0
13.12.2017 07:00:00 4,8 2,2 0,0
13.12.2017 06:00:00 4,8 2,0 0,0
13.12.2017 05:00:00 4,3 2,0 0,0
13.12.2017 04:00:00 4,1 1,9 0,0
13.12.2017 03:00:00 4,1 1,8 0,0
13.12.2017 02:00:00 3,9 1,7 0,0
13.12.2017 01:00:00 4,6 1,7 0,0
13.12.2017 00:00:00 4,7 2,0 0,0
12.12.2017 23:00:00 4,3 2,4 0,0
12.12.2017 22:00:00 2,7 1,7 0,0
12.12.2017 21:00:00 2,7 1,6 0,2
12.12.2017 20:00:00 3,1 1,3 0,0
12.12.2017 19:00:00 2,9 1,1 0,0
12.12.2017 18:00:00 3,1 0,7 0,0
12.12.2017 17:00:00 3,5 1,2 0,0
12.12.2017 16:00:00 3,5 1,0 0,0
12.12.2017 15:00:00 3,3 0,8 0,0
12.12.2017 14:00:00 4,1 0,3 0,0
12.12.2017 13:00:00 4,0 0,0 0,2
12.12.2017 12:00:00 3,3 -0,8 0,4
12.12.2017 11:00:00 0,5 -1,8 0,0
12.12.2017 10:00:00 -1,3 -2,5 0,0
12.12.2017 09:00:00 -4,0 -4,6 0,0
12.12.2017 08:00:00 -4,3 -5,1 0,0
12.12.2017 07:00:00 -3,1 -3,2 0,0
12.12.2017 06:00:00 -2,9 -3,2 0,0
12.12.2017 05:00:00 -1,6 -2,6 0,0
12.12.2017 04:00:00 0,1 -0,2 0,0
12.12.2017 03:00:00 0,7 0,7 0,0
12.12.2017 02:00:00 -0,1 -0,1 0,0
12.12.2017 01:00:00 -0,4 -0,4 0,0
12.12.2017 00:00:00 -0,3 -0,3 0,0
11.12.2017 23:00:00 -0,1 -0,1 0,0
11.12.2017 22:00:00 -0,4 -0,4 0,0
11.12.2017 21:00:00 -0,9 -1,0 0,0
11.12.2017 20:00:00 -0,6 -0,9 0,0
11.12.2017 19:00:00 0,6 0,1 0,0
11.12.2017 18:00:00 0,6 0,1 0,0
11.12.2017 17:00:00 0,9 0,2 0,0
11.12.2017 16:00:00 0,5 -0,3 0,0
11.12.2017 15:00:00 0,2 -0,5 0,4
11.12.2017 14:00:00 -1,1 -1,8 0,6
11.12.2017 13:00:00 -4,1 -4,7 0,0
11.12.2017 12:00:00 -5,2 -5,8 0,0
11.12.2017 11:00:00 -6,4 -6,9 0,0
11.12.2017 10:00:00 -8,9 -9,6 0,0
11.12.2017 09:00:00 -10,9 -11,8 0,0
11.12.2017 08:00:00 -10,8 -11,6 0,0
11.12.2017 07:00:00 -11,2 -12,4 0,0
11.12.2017 06:00:00 -11,2 -12,3 0,0
11.12.2017 05:00:00 -10,7 -12,0 0,0
11.12.2017 04:00:00 -10,4 -11,4 0,0
11.12.2017 03:00:00 -11,6 -13,1 0,0
11.12.2017 02:00:00 -9,6 -10,2 0,0
11.12.2017 01:00:00 -9,3 -10,0 0,0
11.12.2017 00:00:00 -9,8 -10,8 0,0
10.12.2017 23:00:00 -9,0 -9,9 0,0
10.12.2017 22:00:00 -8,7 -10,0 0,0
10.12.2017 21:00:00 -6,6 -7,3 0,0
10.12.2017 20:00:00 -5,8 -6,3 0,0
10.12.2017 19:00:00 -6,0 -6,7 0,0
10.12.2017 18:00:00 -4,7 -5,0 0,0
10.12.2017 17:00:00 -4,3 -4,8 0,0
10.12.2017 16:00:00 -3,6 -4,1 0,0
10.12.2017 15:00:00 -2,6 -3,1 0,0
10.12.2017 14:00:00 -2,0 -2,8 0,8
10.12.2017 13:00:00 -3,6 -4,1 0,0
10.12.2017 12:00:00 -4,3 -4,7 0,0
10.12.2017 11:00:00 -5,8 -6,2 0,0
10.12.2017 10:00:00 -6,8 -7,2 0,0
10.12.2017 09:00:00 -8,1 -8,8 0,0
10.12.2017 08:00:00 -8,0 -8,6 0,0
10.12.2017 07:00:00 -7,4 -8,0 0,0
10.12.2017 06:00:00 -7,4 -8,0 0,0
10.12.2017 05:00:00 -6,6 -7,3 0,0
10.12.2017 04:00:00 -6,2 -7,0 0,0
10.12.2017 03:00:00 -5,5 -6,2 0,0
10.12.2017 02:00:00 -4,8 -6,0 0,0
10.12.2017 01:00:00 -4,0 -5,5 0,0

tt = Température de l'air
td = dewpoint
rr = Quantités de précipitations

stations d'obs. à proximité